Date String (YYYY-MM-DD hh:mm:ss) UTC,Instrument flags,absolute air pressure of the measurement (hPa),sample flow rate (lpm),inlet stack bypass flow (lpm),air temperature of the measurement (°C),ambient temperature measured by the external sensor (°C),aerosol sample conditioner tube jacket temperature (°C),OPC LED temperature (°C),internal box temperature (°C),relative humidity of the measurement (%),span deviation,mass concentration of particles derived from Lorenz-Mie calculation of OPC scattering (μg/m³),mass concentration of particles derived from Lorenz-Mie calculation of OPC scattering (μg/m³),mass concentration of particles derived from Lorenz-Mie calculation of OPC scattering (μg/m³)
DateTimeUTC,F1_M11,P_M11,Q1_M11,Q2_M11,T1_M11,T2_M11,T3_M11,T4_M11,T5_M11,U1_M11,ZSPAN_M11,X2_M11,X0_M11,X1_M11
2023-08-05 20:00:00,SystemResetWarning,0833.9,5.00,000.00,030.5,025.8,000.0,038.6,030.8,33.0,0000.4,0007.17,0012.58,0006.31
2023-08-05 20:01:00,SystemResetWarning,0833.9,5.00,000.00,030.5,026.2,000.0,038.6,030.9,34.4,0000.3,0007.21,0012.86,0006.31
2023-08-05 20:02:00,SystemResetWarning,0833.9,4.99,000.00,030.4,026.7,000.0,038.6,031.0,34.6,-000.1,0007.19,0012.93,0006.30
2023-08-05 20:03:00,SystemResetWarning,0833.8,4.98,000.00,030.4,027.0,000.0,038.7,031.1,35.0,-000.6,0007.22,0013.48,0006.30
2023-08-05 20:04:00,SystemResetWarning,0833.8,5.02,000.00,030.5,027.3,000.0,038.7,031.2,35.5,-000.8,0007.26,0013.13,0006.32
2023-08-05 20:05:00,SystemResetWarning,0833.8,5.00,000.00,030.8,027.6,000.0,038.7,031.3,35.3,-000.9,0007.31,0013.22,0006.35
2023-08-05 20:06:00,SystemResetWarning,0833.8,4.99,000.00,031.1,027.8,000.0,038.7,031.5,34.4,-000.5,0007.30,0013.58,0006.40
2023-08-05 20:07:00,SystemResetWarning,0833.8,4.98,000.00,031.3,028.0,000.0,038.8,031.6,33.6,-000.3,0007.30,0013.73,0006.45
2023-08-05 20:08:00,SystemResetWarning,0833.8,5.01,000.00,031.4,027.7,000.0,038.8,031.6,32.9,-000.5,0007.25,0013.13,0006.49
2023-08-05 20:09:00,SystemResetWarning,0833.8,4.98,000.00,031.5,026.0,000.0,038.7,031.3,32.7,-000.7,0007.29,0013.34,0006.55
2023-08-05 20:10:00,SystemResetWarning,0833.8,5.00,000.00,031.5,024.9,000.0,038.7,031.0,32.6,-001.0,0007.36,0013.33,0006.62
2023-08-05 20:11:00,SystemResetWarning,0833.8,5.00,000.00,031.4,024.9,000.0,038.7,030.9,32.4,-000.5,0007.41,0013.34,0006.67
2023-08-05 20:12:00,SystemResetWarning,0833.8,5.02,000.00,031.2,025.2,000.0,038.8,030.8,32.7,-000.0,0007.40,0013.17,0006.70
2023-08-05 20:13:00,SystemResetWarning,0833.8,5.00,000.00,031.1,025.6,000.0,038.8,030.9,32.3,0000.7,0007.39,0013.24,0006.72
2023-08-05 20:14:00,SystemResetWarning,0833.8,5.00,000.00,031.1,026.1,000.0,038.9,031.0,32.4,0001.0,0007.39,0012.68,0006.74
2023-08-05 20:15:00,SystemResetWarning,0833.8,5.01,000.00,031.0,026.5,000.0,039.0,031.1,32.6,0001.1,0007.38,0012.57,0006.76
2023-08-05 20:16:00,SystemResetWarning,0833.8,5.00,000.00,031.0,026.9,000.0,039.0,031.2,32.7,0001.3,0007.40,0012.68,0006.79
2023-08-05 20:17:00,SystemResetWarning,0833.7,4.99,000.00,031.0,027.2,000.0,039.0,031.3,33.2,0000.9,0007.42,0012.64,0006.79
2023-08-05 20:18:00,SystemResetWarning,0833.7,5.00,000.00,031.0,027.5,000.0,039.0,031.3,33.5,0000.5,0007.43,0013.46,0006.77
2023-08-05 20:19:00,SystemResetWarning,0833.7,5.01,000.00,031.0,027.7,000.0,039.1,031.4,33.8,0000.9,0007.35,0014.04,0006.65
2023-08-05 20:20:00,SystemResetWarning,0833.7,5.00,000.00,031.0,027.9,000.0,039.1,031.4,33.0,0001.5,0007.20,0014.75,0006.48
2023-08-05 20:21:00,SystemResetWarning,0833.7,5.00,000.00,031.0,028.1,000.0,039.1,031.5,33.2,0001.8,0007.06,0015.33,0006.36
2023-08-05 20:22:00,SystemResetWarning,0833.7,5.00,000.00,031.0,028.2,000.0,039.1,031.5,33.3,0001.4,0007.02,0015.21,0006.34
2023-08-05 20:23:00,SystemResetWarning,0833.7,4.98,000.00,031.0,026.9,000.0,039.0,031.3,33.0,0001.1,0007.04,0015.52,0006.37
2023-08-05 20:24:00,SystemResetWarning,0833.6,5.01,000.00,030.9,025.4,000.0,038.8,031.1,33.3,0001.0,0007.10,0015.51,0006.40
2023-08-05 20:25:00,SystemResetWarning,0833.6,5.01,000.00,030.8,025.0,000.0,038.8,030.9,33.4,0000.8,0007.14,0015.60,0006.43
2023-08-05 20:26:00,SystemResetWarning,0833.5,5.01,000.00,030.7,025.2,000.0,038.8,030.8,34.0,0000.6,0007.18,0015.67,0006.45
2023-08-05 20:27:00,SystemResetWarning,0833.4,5.00,000.00,030.5,025.6,000.0,038.8,030.8,33.5,0000.6,0007.15,0015.70,0006.42
2023-08-05 20:28:00,SystemResetWarning,0833.4,5.00,000.00,030.5,026.0,000.0,038.8,030.9,34.2,0000.6,0007.17,0015.51,0006.41
2023-08-05 20:29:00,SystemResetWarning,0833.4,5.00,000.00,030.4,026.5,000.0,038.8,031.0,33.9,0000.8,0007.18,0014.68,0006.40
2023-08-05 20:30:00,SystemResetWarning,0833.4,5.00,000.00,030.4,026.9,000.0,038.8,031.1,34.1,0001.1,0007.28,0014.21,0006.48
2023-08-05 20:31:00,SystemResetWarning,0833.4,4.99,000.00,030.4,027.2,000.0,038.8,031.2,34.3,0001.2,0007.41,0012.90,0006.63
2023-08-05 20:32:00,SystemResetWarning,0833.4,5.00,000.00,030.4,027.5,000.0,038.8,031.2,34.5,0000.6,0007.54,0011.97,0006.74
2023-08-05 20:33:00,SystemResetWarning,0833.4,5.00,000.00,030.4,027.7,000.0,038.8,031.3,34.7,0000.2,0007.56,0012.04,0006.75
2023-08-05 20:34:00,SystemResetWarning,0833.4,5.02,000.00,030.4,027.9,000.0,038.8,031.4,34.4,0000.1,0007.55,0011.73,0006.72
2023-08-05 20:35:00,SystemResetWarning,0833.4,4.99,000.00,030.5,028.1,000.0,038.8,031.4,34.1,-000.5,0007.48,0011.79,0006.70
2023-08-05 20:36:00,SystemResetWarning,0833.3,4.98,000.00,030.5,027.4,000.0,038.7,031.4,33.3,-000.4,0007.51,0013.15,0006.70
2023-08-05 20:37:00,SystemResetWarning,0833.2,5.00,000.00,030.5,025.7,000.0,038.5,031.0,33.8,-000.3,0007.53,0014.29,0006.71
2023-08-05 20:38:00,SystemResetWarning,0833.2,5.01,000.00,030.4,025.0,000.0,038.4,030.9,34.3,-000.2,0007.59,0014.76,0006.74
2023-08-05 20:39:00,SystemResetWarning,0833.1,5.01,000.00,030.3,025.1,000.0,038.4,030.7,33.7,0000.1,0007.62,0014.55,0006.76
2023-08-05 20:40:00,SystemResetWarning,0833.1,4.99,000.00,030.2,025.5,000.0,038.4,030.6,33.5,0000.2,0007.59,0014.71,0006.77
2023-08-05 20:41:00,SystemResetWarning,0833.0,4.99,000.00,030.1,025.9,000.0,038.5,030.8,34.4,0000.5,0007.55,0015.89,0006.78
2023-08-05 20:42:00,SystemResetWarning,0833.2,5.00,000.00,030.1,026.3,000.0,038.5,030.9,34.7,0000.0,0007.56,0016.75,0006.79
2023-08-05 20:43:00,SystemResetWarning,0833.0,5.01,000.00,030.1,026.7,000.0,038.5,031.0,34.0,0000.3,0007.58,0017.44,0006.81
2023-08-05 20:44:00,SystemResetWarning,0833.2,4.99,000.00,030.2,027.1,000.0,038.5,031.1,33.7,0000.7,0007.58,0017.57,0006.81
2023-08-05 20:45:00,SystemResetWarning,0833.3,5.00,000.00,030.2,027.4,000.0,038.5,031.2,33.8,0000.9,0007.58,0017.64,0006.79
2023-08-05 20:46:00,SystemResetWarning,0832.9,5.02,000.00,030.2,027.6,000.0,038.5,031.2,34.0,0001.0,0007.59,0017.57,0006.79
2023-08-05 20:47:00,SystemResetWarning,0832.9,4.99,000.00,030.2,027.9,000.0,038.5,031.3,33.0,0001.2,0007.58,0016.81,0006.79
2023-08-05 20:48:00,SystemResetWarning,0832.9,5.00,000.00,030.3,028.0,000.0,038.6,031.4,32.9,0001.0,0007.56,0015.61,0006.77
2023-08-05 20:49:00,SystemResetWarning,0832.9,5.00,000.00,030.3,027.9,000.0,038.5,031.4,32.6,0001.0,0007.51,0014.93,0006.76
2023-08-05 20:50:00,SystemResetWarning,0832.9,4.99,000.00,030.3,026.3,000.0,038.4,031.0,32.4,0000.7,0007.49,0014.85,0006.73
2023-08-05 20:51:00,SystemResetWarning,0833.1,5.01,000.00,030.2,025.2,000.0,038.3,030.7,32.1,0000.0,0007.46,0014.57,0006.73
2023-08-05 20:52:00,SystemResetWarning,0833.2,5.01,000.00,030.1,025.1,000.0,038.2,030.6,32.8,-000.6,0007.47,0014.26,0006.73
2023-08-05 20:53:00,SystemResetWarning,0833.0,5.01,000.00,029.9,025.3,000.0,038.2,030.5,32.7,-000.4,0007.46,0014.02,0006.71
2023-08-05 20:54:00,SystemResetWarning,0832.9,5.00,000.00,029.9,025.8,000.0,038.3,030.7,32.0,-000.1,0007.44,0014.09,0006.68
2023-08-05 20:55:00,SystemResetWarning,0833.3,4.99,000.00,029.8,026.2,000.0,038.3,030.8,31.8,-000.3,0007.40,0013.53,0006.65
2023-08-05 20:56:00,SystemResetWarning,0833.2,5.00,000.00,029.8,026.6,000.0,038.3,030.9,32.4,-000.5,0007.42,0014.00,0006.65
2023-08-05 20:57:00,SystemResetWarning,0833.0,5.01,000.00,029.8,027.0,000.0,038.3,031.0,32.6,-001.0,0007.40,0015.04,0006.64
2023-08-05 20:58:00,SystemResetWarning,0833.0,5.00,000.00,029.9,027.3,000.0,038.3,031.1,32.3,-000.5,0007.39,0015.16,0006.61
2023-08-05 20:59:00,SystemResetWarning,0832.9,5.00,000.00,029.9,027.6,000.0,038.3,031.1,32.4,-000.8,0007.39,0015.11,0006.58
